Location: Bottens
(46.6171°N, 6.6605°E)
Time: 12:57:44
(UTC+00:00)

UNK - Pass Details

Date: 20 June 2021
Orbit: 666 x 686 km, 98.2° (Epoch: 31 July)

Event Time Altitude Azimuth Distance (km) Brightness Sun altitude
Exits shadow 00:54:21 17° 144° (SE) 1,706 5.5 -17.7°
Maximum altitude 00:57:48 55° 71° (ENE) 817 4.3 -17.5°
Drops below altitude 10° 01:02:20 10° 355° (N) 2,126 7.3 -17.2°
Sets 01:04:37 0° 351° (N) 3,049 8.2 -17.1°
